Time,TemperatureF,DewpointF,PressureIn,WindDirection,WindDirectionDegrees,WindSpeedMPH,WindSpeedGustMPH,Humidity,HourlyPrecipIn,Conditions,Clouds,dailyrainin,SoftwareType,DateUTC
2013-01-25 00:03:00,13.5,4.3,30.29,South,176,1.0,4.0,66,0.00,,---,0.00,VWS V14.01,2013-01-25 06:03:00,
2013-01-25 00:08:00,13.5,4.6,30.29,SW,220,1.0,6.0,67,0.00,,---,0.00,VWS V14.01,2013-01-25 06:08:00,
2013-01-25 00:13:00,13.5,4.9,30.29,ESE,107,2.0,3.0,68,0.00,,---,0.00,VWS V14.01,2013-01-25 06:13:00,
2013-01-25 00:18:00,13.5,5.6,30.29,SE,134,1.0,6.0,70,0.00,,---,0.00,VWS V14.01,2013-01-25 06:18:00,
2013-01-25 00:23:00,13.4,5.8,30.28,SE,142,2.0,6.0,71,0.00,,---,0.00,VWS V14.01,2013-01-25 06:23:00,
2013-01-25 00:28:00,13.4,6.1,30.29,SSW,205,3.0,4.0,72,0.00,,---,0.00,VWS V14.01,2013-01-25 06:28:00,
2013-01-25 00:33:00,13.4,6.4,30.28,ESE,109,1.0,5.0,73,0.00,,---,0.00,VWS V14.01,2013-01-25 06:33:00,
2013-01-25 00:38:00,13.4,6.4,30.29,ESE,103,2.0,5.0,73,0.00,,---,0.00,VWS V14.01,2013-01-25 06:38:00,
2013-01-25 00:43:00,13.5,6.8,30.29,SSE,164,0.0,1.0,74,0.00,,---,0.00,VWS V14.01,2013-01-25 06:43:00,
2013-01-25 00:48:00,13.6,7.2,30.29,SSE,160,1.0,5.0,75,0.00,,---,0.00,VWS V14.01,2013-01-25 06:48:00,
2013-01-25 00:53:00,13.6,7.2,30.28,ESE,112,2.0,5.0,75,0.00,,---,0.00,VWS V14.01,2013-01-25 06:53:00,
2013-01-25 00:58:00,13.7,7.6,30.28,WSW,256,1.0,3.0,76,0.00,,---,0.00,VWS V14.01,2013-01-25 06:58:00,
2013-01-25 01:03:00,13.7,7.6,30.28,SW,216,0.0,5.0,76,0.00,,---,0.00,VWS V14.01,2013-01-25 07:03:00,
2013-01-25 01:08:00,13.8,7.7,30.26,SW,219,3.0,5.0,76,0.00,,---,0.00,VWS V14.01,2013-01-25 07:08:00,
2013-01-25 01:13:00,13.9,7.8,30.25,East,81,4.0,5.0,76,0.00,,---,0.00,VWS V14.01,2013-01-25 07:13:00,
2013-01-25 01:18:00,14.0,7.8,30.26,East,96,3.0,6.0,76,0.00,,---,0.00,VWS V14.01,2013-01-25 07:18:00,
2013-01-25 01:23:00,14.1,8.2,30.26,SW,222,2.0,6.0,77,0.00,,---,0.00,VWS V14.01,2013-01-25 07:23:00,
2013-01-25 01:28:00,14.2,8.3,30.25,East,99,2.0,7.0,77,0.00,,---,0.00,VWS V14.01,2013-01-25 07:28:00,
2013-01-25 01:33:00,14.2,8.3,30.24,SSE,168,1.0,7.0,77,0.00,,---,0.00,VWS V14.01,2013-01-25 07:33:00,
2013-01-25 01:38:00,14.3,8.4,30.24,SSW,197,2.0,7.0,77,0.00,,---,0.00,VWS V14.01,2013-01-25 07:38:00,
2013-01-25 01:43:00,14.3,8.7,30.24,SSE,159,1.0,5.0,78,0.00,,---,0.00,VWS V14.01,2013-01-25 07:43:00,
2013-01-25 01:48:00,14.3,8.7,30.23,West,259,0.0,5.0,78,0.00,,---,0.00,VWS V14.01,2013-01-25 07:48:00,
2013-01-25 01:53:00,14.3,9.0,30.23,East,81,0.0,7.0,79,0.00,,---,0.00,VWS V14.01,2013-01-25 07:53:00,
2013-01-25 01:58:00,14.3,9.0,30.23,SE,130,1.0,7.0,79,0.00,,---,0.00,VWS V14.01,2013-01-25 07:58:00,
2013-01-25 02:03:00,14.3,9.0,30.23,SW,228,1.0,7.0,79,0.00,,---,0.00,VWS V14.01,2013-01-25 08:03:00,
2013-01-25 02:08:00,14.4,9.1,30.22,WSW,246,1.0,7.0,79,0.00,,---,0.00,VWS V14.01,2013-01-25 08:08:00,
2013-01-25 02:13:00,14.4,9.4,30.23,ESE,116,3.0,7.0,80,0.00,,---,0.00,VWS V14.01,2013-01-25 08:13:00,
2013-01-25 02:18:00,14.5,9.5,30.23,SSW,202,3.0,7.0,80,0.00,,---,0.00,VWS V14.01,2013-01-25 08:18:00,
2013-01-25 02:23:00,14.5,9.2,30.22,East,86,3.0,8.0,79,0.00,,---,0.00,VWS V14.01,2013-01-25 08:23:00,
2013-01-25 02:28:00,14.6,9.3,30.21,SW,222,1.0,3.0,79,0.00,,---,0.00,VWS V14.01,2013-01-25 08:28:00,
2013-01-25 02:33:00,14.6,9.3,30.21,SW,219,4.0,6.0,79,0.00,,---,0.00,VWS V14.01,2013-01-25 08:33:00,
2013-01-25 02:38:00,14.7,9.4,30.21,SW,225,3.0,6.0,79,0.00,,---,0.00,VWS V14.01,2013-01-25 08:38:00,
2013-01-25 02:43:00,14.8,9.5,30.21,WNW,282,2.0,5.0,79,0.00,,---,0.00,VWS V14.01,2013-01-25 08:43:00,
2013-01-25 02:48:00,14.9,9.3,30.21,ESE,119,2.0,5.0,78,0.00,,---,0.00,VWS V14.01,2013-01-25 08:48:00,
2013-01-25 02:53:00,14.9,9.3,30.21,SW,218,2.0,6.0,78,0.00,,---,0.00,VWS V14.01,2013-01-25 08:53:00,
2013-01-25 02:58:00,15.0,9.1,30.20,WSW,258,1.0,6.0,77,0.00,,---,0.00,VWS V14.01,2013-01-25 08:58:00,
2013-01-25 03:03:00,15.1,9.2,30.20,South,191,6.0,9.0,77,0.00,,---,0.00,VWS V14.01,2013-01-25 09:03:00,
2013-01-25 03:08:00,15.2,9.3,30.19,West,263,1.0,9.0,77,0.00,,---,0.00,VWS V14.01,2013-01-25 09:08:00,
2013-01-25 03:13:00,15.2,9.0,30.19,WSW,240,0.0,1.0,76,0.00,,---,0.00,VWS V14.01,2013-01-25 09:13:00,
2013-01-25 03:18:00,15.3,9.1,30.19,SW,233,2.0,10.0,76,0.00,,---,0.00,VWS V14.01,2013-01-25 09:18:00,
2013-01-25 03:23:00,15.3,9.1,30.19,WSW,249,1.0,10.0,76,0.00,,---,0.00,VWS V14.01,2013-01-25 09:23:00,
2013-01-25 03:28:00,15.4,9.2,30.18,WSW,252,3.0,4.0,76,0.00,,---,0.00,VWS V14.01,2013-01-25 09:28:00,
2013-01-25 03:33:00,15.3,9.1,30.18,SSW,201,2.0,5.0,76,0.00,,---,0.00,VWS V14.01,2013-01-25 09:33:00,
2013-01-25 03:38:00,15.4,9.2,30.18,ESE,102,0.0,6.0,76,0.00,,---,0.00,VWS V14.01,2013-01-25 09:38:00,
2013-01-25 03:43:00,15.4,9.2,30.18,SSW,210,0.0,3.0,76,0.00,,---,0.00,VWS V14.01,2013-01-25 09:43:00,
2013-01-25 03:48:00,15.4,9.2,30.17,SSW,209,3.0,5.0,76,0.00,,---,0.00,VWS V14.01,2013-01-25 09:48:00,
2013-01-25 03:53:00,15.4,9.2,30.16,South,178,4.0,7.0,76,0.00,,---,0.00,VWS V14.01,2013-01-25 09:53:00,
2013-01-25 03:58:00,15.5,9.3,30.16,WSW,255,3.0,7.0,76,0.00,,---,0.00,VWS V14.01,2013-01-25 09:58:00,
2013-01-25 04:03:00,15.5,9.3,30.15,South,187,1.0,7.0,76,0.00,,---,0.00,VWS V14.01,2013-01-25 10:03:00,
2013-01-25 04:08:00,15.5,9.3,30.14,SW,228,2.0,7.0,76,0.00,,---,0.00,VWS V14.01,2013-01-25 10:08:00,
2013-01-25 04:13:00,15.5,9.3,30.14,South,173,2.0,5.0,76,0.00,,---,0.00,VWS V14.01,2013-01-25 10:13:00,
2013-01-25 04:18:00,15.5,9.3,30.13,SW,226,1.0,6.0,76,0.00,,---,0.00,VWS V14.01,2013-01-25 10:18:00,
2013-01-25 04:23:00,15.6,9.4,30.13,SE,135,5.0,6.0,76,0.00,,---,0.00,VWS V14.01,2013-01-25 10:23:00,
2013-01-25 04:28:00,15.7,9.5,30.13,SW,231,2.0,4.0,76,0.00,,---,0.00,VWS V14.01,2013-01-25 10:28:00,
2013-01-25 04:33:00,15.7,9.2,30.13,SSW,209,3.0,7.0,75,0.00,,---,0.00,VWS V14.01,2013-01-25 10:33:00,
2013-01-25 04:38:00,15.8,9.3,30.12,SSW,194,0.0,7.0,75,0.00,,---,0.00,VWS V14.01,2013-01-25 10:38:00,
2013-01-25 04:43:00,15.8,9.3,30.12,SSE,163,4.0,5.0,75,0.00,,---,0.00,VWS V14.01,2013-01-25 10:43:00,
2013-01-25 04:48:00,15.8,9.3,30.12,SSW,198,4.0,5.0,75,0.00,,---,0.00,VWS V14.01,2013-01-25 10:48:00,
2013-01-25 04:53:00,15.9,9.1,30.11,WSW,252,0.0,5.0,74,0.00,,---,0.00,VWS V14.01,2013-01-25 10:53:00,
2013-01-25 04:58:00,15.9,9.1,30.11,SSE,149,4.0,5.0,74,0.00,,---,0.00,VWS V14.01,2013-01-25 10:58:00,
2013-01-25 05:03:00,16.0,9.2,30.11,ESE,116,2.0,8.0,74,0.00,,---,0.00,VWS V14.01,2013-01-25 11:03:00,
2013-01-25 05:08:00,16.1,9.3,30.10,SSW,212,5.0,12.0,74,0.00,,---,0.00,VWS V14.01,2013-01-25 11:08:00,
2013-01-25 05:13:00,16.2,9.1,30.10,WNW,287,1.0,2.0,73,0.00,,---,0.00,VWS V14.01,2013-01-25 11:13:00,
2013-01-25 05:18:00,16.3,9.2,30.09,SE,137,6.0,10.0,73,0.00,,---,0.00,VWS V14.01,2013-01-25 11:18:00,
2013-01-25 05:23:00,16.4,9.0,30.09,SE,140,2.0,11.0,72,0.00,,---,0.00,VWS V14.01,2013-01-25 11:23:00,
2013-01-25 05:28:00,16.5,9.1,30.10,WNW,299,0.0,7.0,72,0.00,,---,0.00,VWS V14.01,2013-01-25 11:28:00,
2013-01-25 05:33:00,16.5,8.8,30.10,SSW,212,2.0,9.0,71,0.00,,---,0.00,VWS V14.01,2013-01-25 11:33:00,
2013-01-25 05:38:00,16.6,8.9,30.10,West,261,1.0,9.0,71,0.00,,---,0.00,VWS V14.01,2013-01-25 11:38:00,
2013-01-25 05:43:00,16.6,8.9,30.09,South,179,3.0,4.0,71,0.00,,---,0.00,VWS V14.01,2013-01-25 11:43:00,
2013-01-25 05:48:00,16.7,8.9,30.09,South,180,1.0,8.0,71,0.00,,---,0.00,VWS V14.01,2013-01-25 11:48:00,
2013-01-25 05:53:00,16.8,9.0,30.08,SSE,159,2.0,8.0,71,0.00,,---,0.00,VWS V14.01,2013-01-25 11:53:00,
2013-01-25 05:58:00,16.8,8.7,30.08,WSW,237,2.0,3.0,70,0.00,,---,0.00,VWS V14.01,2013-01-25 11:58:00,
2013-01-25 06:03:00,16.9,8.8,30.08,SSE,164,2.0,6.0,70,0.00,,---,0.00,VWS V14.01,2013-01-25 12:03:00,
2013-01-25 06:08:00,17.0,8.9,30.07,SE,142,3.0,6.0,70,0.00,,---,0.00,VWS V14.01,2013-01-25 12:08:00,
2013-01-25 06:13:00,17.0,8.6,30.07,WSW,251,1.0,4.0,69,0.00,,---,0.00,VWS V14.01,2013-01-25 12:13:00,
2013-01-25 06:18:00,17.0,8.6,30.07,West,261,1.0,4.0,69,0.00,,---,0.00,VWS V14.01,2013-01-25 12:18:00,
2013-01-25 06:23:00,17.1,8.7,30.07,WSW,248,2.0,9.0,69,0.00,,---,0.00,VWS V14.01,2013-01-25 12:23:00,
2013-01-25 06:28:00,17.2,8.8,30.07,SSW,209,4.0,5.0,69,0.00,,---,0.00,VWS V14.01,2013-01-25 12:28:00,
2013-01-25 06:33:00,17.2,8.8,30.07,WSW,251,2.0,6.0,69,0.00,,---,0.00,VWS V14.01,2013-01-25 12:33:00,
2013-01-25 06:38:00,17.2,8.8,30.07,SSW,199,3.0,6.0,69,0.00,,---,0.00,VWS V14.01,2013-01-25 12:38:00,
2013-01-25 06:43:00,17.3,8.9,30.07,West,265,1.0,4.0,69,0.00,,---,0.00,VWS V14.01,2013-01-25 12:43:00,
2013-01-25 06:48:00,17.3,8.9,30.06,WSW,243,1.0,7.0,69,0.00,,---,0.00,VWS V14.01,2013-01-25 12:48:00,
2013-01-25 06:53:00,17.3,8.9,30.07,SW,230,6.0,8.0,69,0.00,,---,0.00,VWS V14.01,2013-01-25 12:53:00,
2013-01-25 06:58:00,17.3,8.9,30.06,WSW,245,1.0,4.0,69,0.00,,---,0.00,VWS V14.01,2013-01-25 12:58:00,
2013-01-25 07:03:00,17.3,8.9,30.07,West,269,1.0,6.0,69,0.00,,---,0.00,VWS V14.01,2013-01-25 13:03:00,
2013-01-25 07:08:00,17.3,9.2,30.06,West,280,0.0,7.0,70,0.00,,---,0.00,VWS V14.01,2013-01-25 13:08:00,
2013-01-25 07:13:00,17.3,9.2,30.07,West,260,1.0,2.0,70,0.00,,---,0.00,VWS V14.01,2013-01-25 13:13:00,
2013-01-25 07:18:00,17.3,9.5,30.07,West,273,5.0,6.0,71,0.00,,---,0.00,VWS V14.01,2013-01-25 13:18:00,
2013-01-25 07:22:00,17.3,9.5,30.07,SSW,212,4.0,8.0,71,0.00,,---,0.00,VWS V14.01,2013-01-25 13:22:00,
2013-01-25 07:27:00,17.4,9.9,30.06,SW,228,3.0,6.0,72,0.00,,---,0.00,VWS V14.01,2013-01-25 13:27:00,
2013-01-25 07:32:00,17.3,9.8,30.07,WSW,258,1.0,9.0,72,0.00,,---,0.00,VWS V14.01,2013-01-25 13:32:00,
2013-01-25 07:37:00,17.3,10.1,30.07,West,261,2.0,9.0,73,0.00,,---,0.00,VWS V14.01,2013-01-25 13:37:00,
2013-01-25 07:42:00,17.3,10.1,30.07,East,82,0.0,2.0,73,0.00,,---,0.00,VWS V14.01,2013-01-25 13:42:00,
2013-01-25 07:47:00,17.3,10.1,30.07,South,183,0.0,6.0,73,0.00,,---,0.00,VWS V14.01,2013-01-25 13:47:00,
2013-01-25 07:52:00,17.3,10.1,30.06,West,261,1.0,7.0,73,0.00,,---,0.00,VWS V14.01,2013-01-25 13:52:00,
2013-01-25 07:57:00,17.3,10.4,30.06,SSE,152,3.0,4.0,74,0.00,,---,0.00,VWS V14.01,2013-01-25 13:57:00,
2013-01-25 08:02:00,17.3,10.4,30.06,West,275,4.0,6.0,74,0.00,,---,0.00,VWS V14.01,2013-01-25 14:02:00,
2013-01-25 08:07:00,17.3,10.4,30.06,WSW,243,3.0,8.0,74,0.00,,---,0.00,VWS V14.01,2013-01-25 14:07:00,
2013-01-25 08:12:00,17.3,10.4,30.06,WNW,296,5.0,5.0,74,0.00,,---,0.00,VWS V14.01,2013-01-25 14:12:00,
2013-01-25 08:17:00,17.3,10.4,30.06,NW,315,2.0,5.0,74,0.00,,---,0.00,VWS V14.01,2013-01-25 14:17:00,
2013-01-25 08:22:00,17.2,10.4,30.06,WNW,291,2.0,6.0,74,0.00,,---,0.00,VWS V14.01,2013-01-25 14:22:00,
2013-01-25 08:27:00,17.1,10.3,30.06,West,262,2.0,2.0,74,0.00,,---,0.00,VWS V14.01,2013-01-25 14:27:00,
2013-01-25 08:32:00,17.0,10.2,30.06,SW,223,3.0,5.0,74,0.00,,---,0.00,VWS V14.01,2013-01-25 14:32:00,
2013-01-25 08:37:00,17.1,10.6,30.06,West,281,2.0,5.0,75,0.00,,---,0.00,VWS V14.01,2013-01-25 14:37:00,
2013-01-25 08:42:00,17.2,10.6,30.06,WSW,252,3.0,5.0,75,0.00,,---,0.00,VWS V14.01,2013-01-25 14:42:00,
2013-01-25 08:47:00,17.5,10.9,30.06,West,280,0.0,5.0,75,0.00,,---,0.00,VWS V14.01,2013-01-25 14:47:00,
2013-01-25 08:52:00,17.8,11.2,30.06,West,261,2.0,6.0,75,0.00,,---,0.00,VWS V14.01,2013-01-25 14:52:00,
2013-01-25 08:57:00,18.2,11.6,30.06,NW,317,3.0,4.0,75,0.00,,---,0.00,VWS V14.01,2013-01-25 14:57:00,
2013-01-25 09:02:00,18.5,11.6,30.05,West,276,1.0,6.0,74,0.00,,---,0.00,VWS V14.01,2013-01-25 15:02:00,
2013-01-25 09:07:00,18.8,11.9,30.05,West,269,3.0,9.0,74,0.00,,---,0.00,VWS V14.01,2013-01-25 15:07:00,
2013-01-25 09:12:00,18.9,12.0,30.06,WNW,284,1.0,5.0,74,0.00,,---,0.00,VWS V14.01,2013-01-25 15:12:00,
2013-01-25 09:17:00,19.2,12.3,30.06,West,264,3.0,9.0,74,0.00,,---,0.00,VWS V14.01,2013-01-25 15:17:00,
2013-01-25 09:22:00,19.3,12.4,30.06,WNW,293,4.0,9.0,74,0.00,,---,0.00,VWS V14.01,2013-01-25 15:22:00,
2013-01-25 09:27:00,19.3,12.7,30.06,NW,312,3.0,3.0,75,0.00,,---,0.00,VWS V14.01,2013-01-25 15:27:00,
2013-01-25 09:32:00,19.6,13.3,30.06,WNW,291,3.0,8.0,76,0.00,,---,0.00,VWS V14.01,2013-01-25 15:32:00,
2013-01-25 09:37:00,19.7,13.1,30.06,SW,222,5.0,11.0,75,0.00,,---,0.00,VWS V14.01,2013-01-25 15:37:00,
2013-01-25 09:42:00,19.5,12.9,30.07,WSW,249,5.0,5.0,75,0.00,,---,0.00,VWS V14.01,2013-01-25 15:42:00,
2013-01-25 09:47:00,19.4,12.8,30.07,NNW,333,1.0,10.0,75,0.00,,---,0.00,VWS V14.01,2013-01-25 15:47:00,
2013-01-25 09:52:00,19.5,12.0,30.07,WNW,285,5.0,18.0,72,0.00,,---,0.00,VWS V14.01,2013-01-25 15:52:00,
2013-01-25 09:57:00,19.7,11.8,30.07,WNW,282,12.0,12.0,71,0.00,,---,0.00,VWS V14.01,2013-01-25 15:57:00,
2013-01-25 10:02:00,19.9,12.0,30.07,SW,233,7.0,12.0,71,0.00,,---,0.00,VWS V14.01,2013-01-25 16:02:00,
2013-01-25 10:07:00,20.0,11.1,30.07,WSW,257,5.0,12.0,68,0.00,,---,0.00,VWS V14.01,2013-01-25 16:07:00,
2013-01-25 10:12:00,19.4,8.9,30.08,NW,306,4.0,6.0,63,0.00,,---,0.00,VWS V14.01,2013-01-25 16:12:00,
2013-01-25 10:17:00,19.5,8.6,30.07,WNW,292,8.0,14.0,62,0.00,,---,0.00,VWS V14.01,2013-01-25 16:17:00,
2013-01-25 10:22:00,19.7,8.4,30.08,North,353,6.0,15.0,61,0.00,,---,0.00,VWS V14.01,2013-01-25 16:22:00,
2013-01-25 10:27:00,19.5,7.9,30.08,WNW,303,5.0,9.0,60,0.00,,---,0.00,VWS V14.01,2013-01-25 16:27:00,
2013-01-25 10:32:00,19.4,7.8,30.09,SSW,205,7.0,11.0,60,0.00,,---,0.00,VWS V14.01,2013-01-25 16:32:00,
2013-01-25 10:37:00,19.5,8.3,30.08,WNW,284,5.0,11.0,61,0.00,,---,0.00,VWS V14.01,2013-01-25 16:37:00,
2013-01-25 10:42:00,19.7,8.1,30.08,WSW,237,5.0,9.0,60,0.00,,---,0.00,VWS V14.01,2013-01-25 16:42:00,
2013-01-25 10:47:00,19.5,7.9,30.08,West,261,2.0,12.0,60,0.00,,---,0.00,VWS V14.01,2013-01-25 16:47:00,
2013-01-25 10:52:00,19.3,7.7,30.08,East,96,3.0,14.0,60,0.00,,---,0.00,VWS V14.01,2013-01-25 16:52:00,
2013-01-25 10:57:00,19.2,7.6,30.09,NW,308,4.0,8.0,60,0.00,,---,0.00,VWS V14.01,2013-01-25 16:57:00,
2013-01-25 11:02:00,19.1,7.5,30.09,SSW,192,5.0,9.0,60,0.00,,---,0.00,VWS V14.01,2013-01-25 17:02:00,
2013-01-25 11:07:00,18.9,7.3,30.09,WNW,303,5.0,9.0,60,0.00,,---,0.00,VWS V14.01,2013-01-25 17:07:00,
2013-01-25 11:12:00,18.5,6.9,30.09,South,188,3.0,11.0,60,0.00,,---,0.00,VWS V14.01,2013-01-25 17:12:00,
2013-01-25 11:17:00,18.5,7.7,30.09,SW,216,5.0,12.0,62,0.00,,---,0.00,VWS V14.01,2013-01-25 17:17:00,
2013-01-25 11:22:00,18.3,7.1,30.10,SW,226,2.0,12.0,61,0.00,,---,0.00,VWS V14.01,2013-01-25 17:22:00,
2013-01-25 11:27:00,18.3,7.1,30.10,West,269,3.0,7.0,61,0.00,,---,0.00,VWS V14.01,2013-01-25 17:27:00,
2013-01-25 11:32:00,18.1,6.6,30.11,WNW,285,3.0,13.0,60,0.00,,---,0.00,VWS V14.01,2013-01-25 17:32:00,
2013-01-25 11:37:00,17.9,6.4,30.11,WNW,287,5.0,16.0,60,0.00,,---,0.00,VWS V14.01,2013-01-25 17:37:00,
2013-01-25 11:42:00,18.1,6.9,30.11,SW,222,4.0,8.0,61,0.00,,---,0.00,VWS V14.01,2013-01-25 17:42:00,
2013-01-25 11:47:00,17.9,6.4,30.12,WNW,287,5.0,15.0,60,0.00,,---,0.00,VWS V14.01,2013-01-25 17:47:00,
2013-01-25 11:52:00,17.5,6.0,30.12,WNW,303,6.0,17.0,60,0.00,,---,0.00,VWS V14.01,2013-01-25 17:52:00,
2013-01-25 11:57:00,17.4,5.9,30.12,WSW,246,2.0,2.0,60,0.00,,---,0.00,VWS V14.01,2013-01-25 17:57:00,
2013-01-25 12:02:00,17.4,6.3,30.12,West,261,8.0,11.0,61,0.00,,---,0.00,VWS V14.01,2013-01-25 18:02:00,
2013-01-25 12:07:00,17.5,6.4,30.12,WNW,299,4.0,11.0,61,0.00,,---,0.00,VWS V14.01,2013-01-25 18:07:00,
2013-01-25 12:12:00,17.4,6.3,30.12,NNE,16,4.0,11.0,61,0.00,,---,0.00,VWS V14.01,2013-01-25 18:12:00,
2013-01-25 12:17:00,17.3,5.8,30.12,North,360,3.0,11.0,60,0.00,,---,0.00,VWS V14.01,2013-01-25 18:17:00,
2013-01-25 12:22:00,17.3,6.5,30.12,WSW,243,4.0,11.0,62,0.00,,---,0.00,VWS V14.01,2013-01-25 18:22:00,
2013-01-25 12:27:00,17.5,6.0,30.13,WNW,282,3.0,3.0,60,0.00,,---,0.00,VWS V14.01,2013-01-25 18:27:00,
2013-01-25 12:32:00,17.6,6.4,30.13,West,262,5.0,10.0,61,0.00,,---,0.00,VWS V14.01,2013-01-25 18:32:00,
2013-01-25 12:37:00,17.7,6.6,30.13,WNW,284,6.0,10.0,61,0.00,,---,0.00,VWS V14.01,2013-01-25 18:37:00,
2013-01-25 12:42:00,17.4,5.9,30.13,SW,231,6.0,7.0,60,0.00,,---,0.00,VWS V14.01,2013-01-25 18:42:00,
2013-01-25 12:47:00,17.3,5.8,30.14,WSW,254,6.0,10.0,60,0.00,,---,0.00,VWS V14.01,2013-01-25 18:47:00,
2013-01-25 12:52:00,17.1,6.0,30.14,West,268,8.0,10.0,61,0.00,,---,0.00,VWS V14.01,2013-01-25 18:52:00,
2013-01-25 12:57:00,16.9,5.4,30.14,West,265,4.0,4.0,60,0.00,,---,0.00,VWS V14.01,2013-01-25 18:57:00,
2013-01-25 13:02:00,17.1,5.6,30.14,WNW,303,3.0,8.0,60,0.00,,---,0.00,VWS V14.01,2013-01-25 19:02:00,
2013-01-25 13:07:00,17.1,5.6,30.14,WNW,296,5.0,9.0,60,0.00,,---,0.00,VWS V14.01,2013-01-25 19:07:00,
2013-01-25 13:12:00,16.9,5.8,30.15,West,278,6.0,7.0,61,0.00,,---,0.00,VWS V14.01,2013-01-25 19:12:00,
2013-01-25 13:17:00,16.7,5.2,30.15,NNW,327,3.0,10.0,60,0.00,,---,0.00,VWS V14.01,2013-01-25 19:17:00,
2013-01-25 13:22:00,16.8,5.3,30.15,West,268,4.0,10.0,60,0.00,,---,0.00,VWS V14.01,2013-01-25 19:22:00,
2013-01-25 13:27:00,17.0,5.5,30.15,North,9,4.0,4.0,60,0.00,,---,0.00,VWS V14.01,2013-01-25 19:27:00,
2013-01-25 13:32:00,16.8,5.3,30.15,NW,306,2.0,10.0,60,0.00,,---,0.00,VWS V14.01,2013-01-25 19:32:00,
2013-01-25 13:37:00,16.9,5.8,30.15,SW,219,6.0,10.0,61,0.00,,---,0.00,VWS V14.01,2013-01-25 19:37:00,
2013-01-25 13:42:00,16.9,5.4,30.15,North,3,1.0,3.0,60,0.00,,---,0.00,VWS V14.01,2013-01-25 19:42:00,
2013-01-25 13:47:00,17.0,5.5,30.15,WNW,301,4.0,8.0,60,0.00,,---,0.00,VWS V14.01,2013-01-25 19:47:00,
2013-01-25 13:52:00,16.9,5.4,30.16,WSW,237,4.0,13.0,60,0.00,,---,0.00,VWS V14.01,2013-01-25 19:52:00,
2013-01-25 13:57:00,16.9,5.4,30.16,WNW,303,5.0,5.0,60,0.00,,---,0.00,VWS V14.01,2013-01-25 19:57:00,
2013-01-25 14:02:00,16.9,5.4,30.16,WNW,284,6.0,9.0,60,0.00,,---,0.00,VWS V14.01,2013-01-25 20:02:00,
2013-01-25 14:07:00,16.8,5.3,30.16,WSW,243,4.0,10.0,60,0.00,,---,0.00,VWS V14.01,2013-01-25 20:07:00,
2013-01-25 14:12:00,17.2,5.7,30.17,WSW,250,4.0,4.0,60,0.00,,---,0.00,VWS V14.01,2013-01-25 20:12:00,
2013-01-25 14:17:00,17.4,5.5,30.17,West,270,2.0,7.0,59,0.00,,---,0.00,VWS V14.01,2013-01-25 20:17:00,
2013-01-25 14:22:00,17.4,5.5,30.18,NW,318,1.0,8.0,59,0.00,,---,0.00,VWS V14.01,2013-01-25 20:22:00,
2013-01-25 14:27:00,17.2,5.3,30.18,NW,320,3.0,4.0,59,0.00,,---,0.00,VWS V14.01,2013-01-25 20:27:00,
2013-01-25 14:32:00,17.0,5.5,30.18,West,266,5.0,9.0,60,0.00,,---,0.00,VWS V14.01,2013-01-25 20:32:00,
2013-01-25 14:37:00,16.7,4.9,30.18,WNW,294,4.0,14.0,59,0.00,,---,0.00,VWS V14.01,2013-01-25 20:37:00,
2013-01-25 14:42:00,16.5,5.1,30.18,North,7,2.0,3.0,60,0.00,,---,0.00,VWS V14.01,2013-01-25 20:42:00,
2013-01-25 14:47:00,16.8,5.3,30.19,West,273,3.0,8.0,60,0.00,,---,0.00,VWS V14.01,2013-01-25 20:47:00,
2013-01-25 14:52:00,16.7,5.2,30.19,WNW,290,4.0,9.0,60,0.00,,---,0.00,VWS V14.01,2013-01-25 20:52:00,
2013-01-25 14:57:00,16.6,5.2,30.19,WSW,258,3.0,6.0,60,0.00,,---,0.00,VWS V14.01,2013-01-25 20:57:00,
2013-01-25 15:02:00,16.4,4.6,30.20,WNW,294,2.0,7.0,59,0.00,,---,0.00,VWS V14.01,2013-01-25 21:02:00,
2013-01-25 15:07:00,16.5,5.1,30.20,SW,223,4.0,9.0,60,0.00,,---,0.00,VWS V14.01,2013-01-25 21:07:00,
2013-01-25 15:12:00,16.4,4.6,30.20,NNE,23,2.0,5.0,59,0.00,,---,0.00,VWS V14.01,2013-01-25 21:12:00,
2013-01-25 15:17:00,16.3,4.5,30.20,WNW,290,1.0,11.0,59,0.00,,---,0.00,VWS V14.01,2013-01-25 21:17:00,
2013-01-25 15:22:00,16.4,5.0,30.20,NNW,341,7.0,11.0,60,0.00,,---,0.00,VWS V14.01,2013-01-25 21:22:00,
2013-01-25 15:27:00,16.4,4.6,30.20,NNW,327,1.0,3.0,59,0.00,,---,0.00,VWS V14.01,2013-01-25 21:27:00,
2013-01-25 15:32:00,16.5,4.7,30.21,NE,53,1.0,7.0,59,0.00,,---,0.00,VWS V14.01,2013-01-25 21:32:00,
2013-01-25 15:37:00,16.2,4.4,30.20,NW,310,5.0,8.0,59,0.00,,---,0.00,VWS V14.01,2013-01-25 21:37:00,
2013-01-25 15:42:00,16.0,4.2,30.21,WNW,296,2.0,3.0,59,0.00,,---,0.00,VWS V14.01,2013-01-25 21:42:00,
2013-01-25 15:47:00,15.9,4.1,30.21,West,261,8.0,9.0,59,0.00,,---,0.00,VWS V14.01,2013-01-25 21:47:00,
2013-01-25 15:52:00,15.6,3.8,30.21,WNW,291,3.0,10.0,59,0.00,,---,0.00,VWS V14.01,2013-01-25 21:52:00,
2013-01-25 15:57:00,15.5,4.1,30.21,NW,311,1.0,2.0,60,0.00,,---,0.00,VWS V14.01,2013-01-25 21:57:00,
2013-01-25 16:02:00,15.3,3.9,30.22,WSW,246,8.0,9.0,60,0.00,,---,0.00,VWS V14.01,2013-01-25 22:02:00,
2013-01-25 16:07:00,14.9,3.5,30.22,NW,315,2.0,10.0,60,0.00,,---,0.00,VWS V14.01,2013-01-25 22:07:00,
2013-01-25 16:12:00,14.7,3.7,30.22,NW,314,2.0,2.0,61,0.00,,---,0.00,VWS V14.01,2013-01-25 22:12:00,
2013-01-25 16:17:00,14.5,3.5,30.22,West,259,3.0,9.0,61,0.00,,---,0.00,VWS V14.01,2013-01-25 22:17:00,
2013-01-25 16:22:00,14.3,3.3,30.23,WSW,249,2.0,9.0,61,0.00,,---,0.00,VWS V14.01,2013-01-25 22:22:00,
2013-01-25 16:27:00,14.1,3.5,30.23,West,263,1.0,2.0,62,0.00,,---,0.00,VWS V14.01,2013-01-25 22:27:00,
2013-01-25 16:32:00,14.0,3.4,30.23,West,277,3.0,6.0,62,0.00,,---,0.00,VWS V14.01,2013-01-25 22:32:00,
2013-01-25 16:37:00,13.8,3.5,30.23,West,272,4.0,7.0,63,0.00,,---,0.00,VWS V14.01,2013-01-25 22:37:00,
2013-01-25 16:42:00,13.5,3.3,30.24,WSW,242,4.0,5.0,63,0.00,,---,0.00,VWS V14.01,2013-01-25 22:42:00,
2013-01-25 16:47:00,13.3,3.1,30.24,NW,306,5.0,5.0,63,0.00,,---,0.00,VWS V14.01,2013-01-25 22:47:00,
2013-01-25 16:52:00,13.1,3.2,30.24,WNW,282,3.0,6.0,64,0.00,,---,0.00,VWS V14.01,2013-01-25 22:52:00,
2013-01-25 16:57:00,13.0,3.1,30.24,WSW,256,7.0,7.0,64,0.00,,---,0.00,VWS V14.01,2013-01-25 22:57:00,
2013-01-25 17:02:00,12.8,2.9,30.25,WSW,239,4.0,8.0,64,0.00,,---,0.00,VWS V14.01,2013-01-25 23:02:00,
2013-01-25 17:07:00,12.6,2.8,30.25,WSW,240,7.0,8.0,64,0.00,,---,0.00,VWS V14.01,2013-01-25 23:07:00,
2013-01-25 17:12:00,12.5,3.0,30.25,NW,313,1.0,2.0,65,0.00,,---,0.00,VWS V14.01,2013-01-25 23:12:00,
2013-01-25 17:17:00,12.4,2.9,30.25,West,278,5.0,5.0,65,0.00,,---,0.00,VWS V14.01,2013-01-25 23:17:00,
2013-01-25 17:22:00,12.2,2.7,30.26,SW,227,9.0,9.0,65,0.00,,---,0.00,VWS V14.01,2013-01-25 23:22:00,
2013-01-25 17:27:00,12.0,2.5,30.26,West,266,3.0,4.0,65,0.00,,---,0.00,VWS V14.01,2013-01-25 23:27:00,
2013-01-25 17:32:00,11.9,2.7,30.26,WSW,243,2.0,9.0,66,0.00,,---,0.00,VWS V14.01,2013-01-25 23:32:00,
2013-01-25 17:37:00,11.7,2.5,30.26,West,280,3.0,9.0,66,0.00,,---,0.00,VWS V14.01,2013-01-25 23:37:00,
2013-01-25 17:42:00,11.6,2.5,30.26,WNW,292,4.0,4.0,66,0.00,,---,0.00,VWS V14.01,2013-01-25 23:42:00,
2013-01-25 17:47:00,11.5,2.4,30.26,West,273,1.0,6.0,66,0.00,,---,0.00,VWS V14.01,2013-01-25 23:47:00,
2013-01-25 17:52:00,11.4,2.6,30.26,West,281,2.0,6.0,67,0.00,,---,0.00,VWS V14.01,2013-01-25 23:52:00,
2013-01-25 17:57:00,11.3,2.5,30.26,NW,306,2.0,2.0,67,0.00,,---,0.00,VWS V14.01,2013-01-25 23:57:00,
2013-01-25 18:02:00,11.2,2.4,30.26,WNW,287,1.0,8.0,67,0.00,,---,0.00,VWS V14.01,2013-01-26 00:02:00,
2013-01-25 18:07:00,11.1,2.3,30.27,WNW,288,1.0,8.0,67,0.00,,---,0.00,VWS V14.01,2013-01-26 00:07:00,
2013-01-25 18:12:00,11.0,2.2,30.27,WNW,289,1.0,8.0,67,0.00,,---,0.00,VWS V14.01,2013-01-26 00:12:00,
2013-01-25 18:17:00,11.0,2.5,30.27,NW,324,2.0,6.0,68,0.00,,---,0.00,VWS V14.01,2013-01-26 00:17:00,
2013-01-25 18:22:00,10.8,2.3,30.27,WNW,294,1.0,6.0,68,0.00,,---,0.00,VWS V14.01,2013-01-26 00:22:00,
2013-01-25 18:27:00,10.7,2.2,30.27,WNW,288,1.0,6.0,68,0.00,,---,0.00,VWS V14.01,2013-01-26 00:27:00,
2013-01-25 18:32:00,10.6,2.1,30.28,NW,309,1.0,6.0,68,0.00,,---,0.00,VWS V14.01,2013-01-26 00:32:00,
2013-01-25 18:37:00,10.6,2.1,30.28,NW,320,0.0,6.0,68,0.00,,---,0.00,VWS V14.01,2013-01-26 00:37:00,
2013-01-25 18:42:00,10.5,2.0,30.29,West,280,1.0,6.0,68,0.00,,---,0.00,VWS V14.01,2013-01-26 00:42:00,
2013-01-25 18:47:00,10.5,2.0,30.29,WNW,286,2.0,8.0,68,0.00,,---,0.00,VWS V14.01,2013-01-26 00:47:00,
2013-01-25 18:52:00,10.3,2.2,30.29,WSW,256,0.0,8.0,69,0.00,,---,0.00,VWS V14.01,2013-01-26 00:52:00,
2013-01-25 18:57:00,10.2,2.1,30.30,West,279,1.0,8.0,69,0.00,,---,0.00,VWS V14.01,2013-01-26 00:57:00,
2013-01-25 19:02:00,10.1,2.0,30.30,SW,233,4.0,4.0,69,0.00,,---,0.00,VWS V14.01,2013-01-26 01:02:00,
2013-01-25 19:07:00,10.1,2.0,30.30,West,275,2.0,6.0,69,0.00,,---,0.00,VWS V14.01,2013-01-26 01:07:00,
2013-01-25 19:12:00,10.0,1.6,30.30,WSW,256,3.0,6.0,68,0.00,,---,0.00,VWS V14.01,2013-01-26 01:12:00,
2013-01-25 19:17:00,10.0,1.6,30.31,WSW,249,4.0,4.0,68,0.00,,---,0.00,VWS V14.01,2013-01-26 01:17:00,
2013-01-25 19:22:00,9.9,1.5,30.30,WNW,289,1.0,4.0,68,0.00,,---,0.00,VWS V14.01,2013-01-26 01:22:00,
2013-01-25 19:27:00,9.8,1.7,30.31,West,261,1.0,4.0,69,0.00,,---,0.00,VWS V14.01,2013-01-26 01:27:00,
2013-01-25 19:32:00,9.6,1.5,30.31,West,280,1.0,3.0,69,0.00,,---,0.00,VWS V14.01,2013-01-26 01:32:00,
2013-01-25 19:37:00,9.5,1.7,30.31,West,270,3.0,3.0,70,0.00,,---,0.00,VWS V14.01,2013-01-26 01:37:00,
2013-01-25 19:42:00,9.4,1.6,30.31,West,274,4.0,4.0,70,0.00,,---,0.00,VWS V14.01,2013-01-26 01:42:00,
2013-01-25 19:47:00,9.2,1.7,30.32,West,280,1.0,5.0,71,0.00,,---,0.00,VWS V14.01,2013-01-26 01:47:00,
2013-01-25 19:52:00,9.0,1.5,30.32,WNW,284,1.0,5.0,71,0.00,,---,0.00,VWS V14.01,2013-01-26 01:52:00,
2013-01-25 19:57:00,8.8,1.3,30.32,WSW,254,2.0,5.0,71,0.00,,---,0.00,VWS V14.01,2013-01-26 01:57:00,
2013-01-25 20:02:00,8.8,1.3,30.32,WSW,254,0.0,6.0,71,0.00,,---,0.00,VWS V14.01,2013-01-26 02:02:00,
2013-01-25 20:07:00,8.7,1.2,30.33,WSW,242,0.0,6.0,71,0.00,,---,0.00,VWS V14.01,2013-01-26 02:07:00,
2013-01-25 20:12:00,8.7,1.2,30.32,WNW,300,1.0,6.0,71,0.00,,---,0.00,VWS V14.01,2013-01-26 02:12:00,
2013-01-25 20:17:00,8.6,1.1,30.33,West,270,2.0,5.0,71,0.00,,---,0.00,VWS V14.01,2013-01-26 02:17:00,
2013-01-25 20:22:00,8.6,0.8,30.33,West,281,1.0,5.0,70,0.00,,---,0.00,VWS V14.01,2013-01-26 02:22:00,
2013-01-25 20:27:00,8.5,0.7,30.34,WNW,289,2.0,5.0,70,0.00,,---,0.00,VWS V14.01,2013-01-26 02:27:00,
2013-01-25 20:32:00,8.3,0.9,30.34,WSW,256,1.0,4.0,71,0.00,,---,0.00,VWS V14.01,2013-01-26 02:32:00,
2013-01-25 20:37:00,8.1,1.0,30.34,WNW,285,1.0,4.0,72,0.00,,---,0.00,VWS V14.01,2013-01-26 02:37:00,
2013-01-25 20:42:00,7.9,0.8,30.35,WNW,287,1.0,4.0,72,0.00,,---,0.00,VWS V14.01,2013-01-26 02:42:00,
2013-01-25 20:47:00,7.7,0.6,30.35,NW,317,1.0,4.0,72,0.00,,---,0.00,VWS V14.01,2013-01-26 02:47:00,
2013-01-25 20:52:00,7.7,0.6,30.35,WNW,303,1.0,4.0,72,0.00,,---,0.00,VWS V14.01,2013-01-26 02:52:00,
2013-01-25 20:57:00,7.6,0.5,30.35,WSW,237,3.0,6.0,72,0.00,,---,0.00,VWS V14.01,2013-01-26 02:57:00,
2013-01-25 21:02:00,7.6,0.5,30.36,WSW,243,3.0,7.0,72,0.00,,---,0.00,VWS V14.01,2013-01-26 03:02:00,
2013-01-25 21:07:00,7.6,0.5,30.36,WNW,301,1.0,7.0,72,0.00,,---,0.00,VWS V14.01,2013-01-26 03:07:00,
2013-01-25 21:12:00,7.5,0.4,30.37,WNW,299,1.0,7.0,72,0.00,,---,0.00,VWS V14.01,2013-01-26 03:12:00,
2013-01-25 21:17:00,7.4,0.3,30.37,WSW,250,2.0,2.0,72,0.00,,---,0.00,VWS V14.01,2013-01-26 03:17:00,
2013-01-25 21:22:00,7.3,0.2,30.36,WNW,296,1.0,6.0,72,0.00,,---,0.00,VWS V14.01,2013-01-26 03:22:00,
2013-01-25 21:27:00,7.2,0.1,30.37,NW,310,1.0,6.0,72,0.00,,---,0.00,VWS V14.01,2013-01-26 03:27:00,
2013-01-25 21:32:00,7.1,0.0,30.37,WNW,290,2.0,4.0,72,0.00,,---,0.00,VWS V14.01,2013-01-26 03:32:00,
2013-01-25 21:37:00,7.0,-0.1,30.37,West,278,2.0,4.0,72,0.00,,---,0.00,VWS V14.01,2013-01-26 03:37:00,
2013-01-25 21:42:00,6.9,-0.2,30.37,WNW,284,3.0,5.0,72,0.00,,---,0.00,VWS V14.01,2013-01-26 03:42:00,
2013-01-25 21:47:00,6.8,-0.3,30.37,WSW,258,3.0,6.0,72,0.00,,---,0.00,VWS V14.01,2013-01-26 03:47:00,
2013-01-25 21:52:00,6.7,-0.4,30.37,West,281,2.0,6.0,72,0.00,,---,0.00,VWS V14.01,2013-01-26 03:52:00,
2013-01-25 21:57:00,6.6,-0.5,30.37,NW,320,1.0,6.0,72,0.00,,---,0.00,VWS V14.01,2013-01-26 03:57:00,
2013-01-25 22:02:00,6.5,-0.6,30.37,WNW,292,1.0,3.0,72,0.00,,---,0.00,VWS V14.01,2013-01-26 04:02:00,
2013-01-25 22:07:00,6.5,-0.6,30.37,WNW,289,2.0,5.0,72,0.00,,---,0.00,VWS V14.01,2013-01-26 04:07:00,
2013-01-25 22:12:00,6.3,-0.8,30.37,WNW,285,1.0,5.0,72,0.00,,---,0.00,VWS V14.01,2013-01-26 04:12:00,
2013-01-25 22:17:00,6.2,-1.2,30.37,West,263,1.0,2.0,71,0.00,,---,0.00,VWS V14.01,2013-01-26 04:17:00,
2013-01-25 22:22:00,6.1,-1.0,30.37,West,264,0.0,2.0,72,0.00,,---,0.00,VWS V14.01,2013-01-26 04:22:00,
2013-01-25 22:27:00,5.9,-1.2,30.37,West,264,0.0,2.0,72,0.00,,---,0.00,VWS V14.01,2013-01-26 04:27:00,
2013-01-25 22:32:00,5.8,-1.3,30.38,West,264,0.0,1.0,72,0.00,,---,0.00,VWS V14.01,2013-01-26 04:32:00,
2013-01-25 22:37:00,5.6,-1.5,30.38,West,263,0.0,3.0,72,0.00,,---,0.00,VWS V14.01,2013-01-26 04:37:00,
2013-01-25 22:42:00,5.5,-1.3,30.38,West,273,0.0,3.0,73,0.00,,---,0.00,VWS V14.01,2013-01-26 04:42:00,
2013-01-25 22:47:00,5.4,-1.4,30.39,WNW,283,2.0,3.0,73,0.00,,---,0.00,VWS V14.01,2013-01-26 04:47:00,
2013-01-25 22:52:00,5.5,-1.3,30.39,West,281,2.0,4.0,73,0.00,,---,0.00,VWS V14.01,2013-01-26 04:52:00,
2013-01-25 22:57:00,5.5,-1.3,30.39,West,268,0.0,4.0,73,0.00,,---,0.00,VWS V14.01,2013-01-26 04:57:00,
2013-01-25 23:00:00,5.4,-1.6,30.39,West,277,1.0,2.0,72,0.00,,---,0.00,VWS V14.01,2013-01-26 05:00:00,
2013-01-25 23:05:00,5.3,-1.8,30.39,WNW,293,0.0,3.0,72,0.00,,---,0.00,VWS V14.01,2013-01-26 05:05:00,
2013-01-25 23:10:00,5.2,-1.5,30.39,WNW,292,1.0,3.0,73,0.00,,---,0.00,VWS V14.01,2013-01-26 05:10:00,
2013-01-25 23:15:00,5.2,-1.8,30.39,WNW,293,0.0,1.0,72,0.00,,---,0.00,VWS V14.01,2013-01-26 05:15:00,
2013-01-25 23:20:00,5.1,-1.9,30.40,WNW,292,0.0,1.0,72,0.00,,---,0.00,VWS V14.01,2013-01-26 05:20:00,
2013-01-25 23:25:00,5.0,-2.0,30.40,WNW,292,0.0,1.0,72,0.00,,---,0.00,VWS V14.01,2013-01-26 05:25:00,
2013-01-25 23:30:00,4.8,-1.9,30.40,WNW,292,0.0,1.0,73,0.00,,---,0.00,VWS V14.01,2013-01-26 05:30:00,
2013-01-25 23:35:00,4.5,-2.2,30.41,West,264,2.0,4.0,73,0.00,,---,0.00,VWS V14.01,2013-01-26 05:35:00,
2013-01-25 23:40:00,4.4,-2.0,30.41,West,281,0.0,4.0,74,0.00,,---,0.00,VWS V14.01,2013-01-26 05:40:00,
2013-01-25 23:45:00,4.4,-2.0,30.41,West,281,1.0,1.0,74,0.00,,---,0.00,VWS V14.01,2013-01-26 05:45:00,
2013-01-25 23:50:00,4.4,-2.0,30.41,West,280,0.0,1.0,74,0.00,,---,0.00,VWS V14.01,2013-01-26 05:50:00,
2013-01-25 23:55:00,4.4,-2.0,30.41,WNW,284,1.0,4.0,74,0.00,,---,0.00,VWS V14.01,2013-01-26 05:55:00,